Weather History for New Bern, NC

Change the Weather History Date:

Monday, January 27, 2014

  Actual Average Record
Temperature  
Mean Temperature 55 °F 45 °F  
Max Temperature 69 °F 55 °F 79 °F (1974)
Min Temperature 40 °F 34 °F 15 °F (1985)
Degree Days  
Heating Degree Days 10 20  
Month to date heating degree days 594 564  
Since 1 July heating degree days 1447 1558  
Cooling Degree Days 0 0  
Month to date cooling degree days 1 0  
Year to date cooling degree days 1 0  
Growing Degree Days 6 (Base 50)    
Moisture  
Dew Point 35 °F    
Average Humidity 49    
Maximum Humidity 71    
Minimum Humidity 26    
Precipitation  
Precipitation 0.00 in 0.12 in 0.92 in (1983)
Month to date precipitation 3.28 3.49  
Year to date precipitation 3.28 3.49  
Snow  
Snow 0.00 in - - ()
Month to date snowfall T  
Since 1 July snowfall T  
Snow Depth 0.00 in    
Sea Level Pressure  
Sea Level Pressure 29.90 in    
Wind  
Wind Speed 9 mph (SW)    
Max Wind Speed 28 mph    
Max Gust Speed 35 mph    
Visibility 10 miles    
Events      
T = Trace of Precipitation, MM = Missing Value Source: NWS Daily Summary

Daily Weather History Graph

Daily Weather History Graph

Search for Another Location

Airport:

Trip Planner

Search our weather history database for the weather conditions in past years. The results will help you decide how hot, cold, wet, or windy it might be!

Date:

Astronomy

Jan. 27, 2014 Rise Set
Actual Time 7:10 AM EST 5:31 PM EST
Civil Twilight 6:43 AM EST 5:58 PM EST
Nautical Twilight 6:13 AM EST 6:29 PM EST
Astronomical Twilight 5:43 AM EST 6:59 PM EST
Moon 3:48 AM EST (1/27) 2:17 PM EST (1/27)
Length of Visible Light 11h 15m
Length of Day
10h 21m
Waning Crescent, 15% of the Moon is Illuminated
Jan 27
Waning Crescent
Jan 30
New
Feb 6
First Quarter
Feb 14
Full
Feb 22
Last Quarter

Hourly Weather History & Observations

Time (EST) Temp. Windchill Dew Point Humidity Pressure Visibility Wind Dir Wind Speed Gust Speed Precip Events Conditions
12:54 AM 44.1 °F 39.0 °F 33.1 °F 65% 29.94 in 10.0 mi SSW 9.2 mph - N/A   Clear
1:54 AM 45.0 °F 40.6 °F 33.1 °F 63% 29.93 in 10.0 mi SSW 8.1 mph - N/A   Clear
2:54 AM 46.0 °F 42.5 °F 33.1 °F 61% 29.93 in 10.0 mi SSW 6.9 mph - N/A   Clear
3:54 AM 44.1 °F 41.5 °F 33.1 °F 65% 29.93 in 10.0 mi SSW 4.6 mph - N/A   Clear
4:54 AM 46.0 °F 43.1 °F 33.1 °F 61% 29.92 in 10.0 mi SSW 5.8 mph - N/A   Clear
5:54 AM 46.9 °F - 33.1 °F 59% 29.91 in 10.0 mi SW 5.8 mph - N/A   Clear
6:54 AM 46.9 °F - 32.0 °F 56% 29.91 in 10.0 mi SW 4.6 mph - N/A   Clear
7:54 AM 50.0 °F - 32.0 °F 50% 29.91 in 10.0 mi SW 6.9 mph - N/A   Mostly Cloudy
8:54 AM 51.1 °F - 33.1 °F 50% 29.92 in 10.0 mi SSW 6.9 mph - N/A   Clear
9:54 AM 55.9 °F - 33.1 °F 42% 29.91 in 10.0 mi SSW 8.1 mph - N/A   Clear
10:54 AM 63.0 °F - 33.1 °F 33% 29.90 in 10.0 mi WSW 9.2 mph - N/A   Clear
11:54 AM 64.0 °F - 32.0 °F 30% 29.88 in 10.0 mi WSW 15.0 mph 27.6 mph N/A   Clear
12:54 PM 66.9 °F - 33.1 °F 28% 29.85 in 10.0 mi SW 15.0 mph 21.9 mph N/A   Clear
1:54 PM 68.0 °F - 34.0 °F 28% 29.84 in 10.0 mi Variable 6.9 mph 17.3 mph N/A   Clear
2:54 PM 69.1 °F - 34.0 °F 27% 29.82 in 10.0 mi SSW 9.2 mph - N/A   Clear
3:54 PM 64.0 °F - 41.0 °F 43% 29.82 in 7.0 mi SSE 11.5 mph - N/A   Scattered Clouds
4:54 PM 62.1 °F - 39.0 °F 43% 29.82 in 10.0 mi South 8.1 mph - N/A   Clear
5:54 PM 55.0 °F - 39.0 °F 55% 29.83 in 10.0 mi South 3.5 mph - N/A   Partly Cloudy
6:54 PM 54.0 °F - 39.9 °F 59% 29.87 in 10.0 mi SSW 5.8 mph - N/A   Mostly Cloudy
7:54 PM 51.1 °F - 39.9 °F 66% 29.90 in 10.0 mi SSW 3.5 mph - N/A   Clear
8:54 PM 51.1 °F - 41.0 °F 68% 29.92 in 10.0 mi SW 8.1 mph - N/A   Clear
9:54 PM 50.0 °F - 41.0 °F 71% 29.94 in 10.0 mi NW 10.4 mph 21.9 mph N/A   Clear
10:54 PM 43.0 °F 34.2 °F 30.9 °F 62% 30.02 in 10.0 mi NNE 20.7 mph 31.1 mph N/A   Clear
11:54 PM 39.9 °F 31.4 °F 26.1 °F 58% 30.06 in 10.0 mi NE 16.1 mph - N/A   Clear